User: anonymous   Login
Location: Lac de la Montange Noire
(46.1952°N, 74.2701°W)
Time: 14:05:33
(UTC-05:00)
Language:

Iridium 42 - Orbit

View from above orbital plane
View from above orbital plane
View from above satellite
View from above satellite

Ground track
Ground track

The orbit data is extracted from the following two-line orbital elements,

1 25077U 97077A   17057.56030501  .00000127  00000-0  38126-4 0  9995
2 25077  86.3926  68.1715 0002039  87.7044 272.4385 14.34528029  6330
Epoch (UTC): 26 February 2017 13:26:50
Eccentricity: 0.0002039
inclination: 86.3926°
perigee height: 775 km
apogee height: 778 km
right ascension of ascending node: 68.1715°
argument of perigee: 87.7044°
revolutions per day: 14.34528029
mean anomaly at epoch: 272.4385°
orbit number at epoch: 633

The dashed part of the orbit path shows where the satellite is in the earth's shadow,  

DLR